Regional Weather Roundup
Issued by NWS

Home | Current Version | Previous Version | Graphics & Text | Print | Product List | Glossary On
Versions: 1 2 3 4 5 6 7 8 9 10 11 12 13 14 15 16 17 18 19 20 21 22 23 24 25 26 27 28 29 30 31 32 33 34 35 36 37 38 39 40 41 42 43 44 45 46 47 48 49 50
000
ASUS43 KTOP 291508
RWRKS

WEATHER ROUNDUP FOR KANSAS
NATIONAL WEATHER SERVICE GOODLAND KS
1000 AM CDT FRI APR 29 2016

NOTE:  "FAIR" INDICATES FEW OR NO CLOUDS BELOW 12,000 FEET WITH NO
SIGNIFICANT WEATHER AND/OR OBSTRUCTIONS TO VISIBILITY.

KSZ001>006-013>018-027>032-041>047-291600-
NORTHWEST KANSAS

CITY           SKY/WX    TMP DP  RH WIND       PRES   REMARKS
GOODLAND       LGT RAIN  40  38  93 NE16      29.97S WCI  31
HAYS           CLOUDY    43  34  70 NE21      30.00F
HILL CITY      CLOUDY    43  39  86 E15       30.03S
RUSSELL        LGT RAIN  44  41  89 NE18      29.99R
$$

KSZ061>065-074>080-084>089-291600-
SOUTHWEST KANSAS

CITY           SKY/WX    TMP DP  RH WIND       PRES   REMARKS
DODGE CITY     HVY RAIN  42  41  96 NE21      29.91F FOG
ELKHART          N/A     42  39  89 NE18        N/A
GARDEN CITY    LGT RAIN  42  40  92 NE26G32   29.91S
GREAT BEND     CLOUDY    45  37  76 E16       29.98S
LIBERAL        CLOUDY    46  41  81 E20       29.83F
PRATT          TSTM      42  41  97 NE23G30   29.89F
$$

KSZ066>073-081>083-090>101-291600-
SOUTHEAST KANSAS

CITY           SKY/WX    TMP DP  RH WIND       PRES   REMARKS
CHANUTE        MOSUNNY   56  46  69 E17       29.92F
COFFEYVILLE    CLOUDY    57  50  77 NE16G24   29.87F
HUTCHINSON     RAIN      47  44  90 NE20G26   29.94F FOG
MEDICINE LODGE   N/A     47  45  93 NE21G31   29.87F
NEWTON         CLOUDY    46  39  76 NE15G21   29.99F
PARSONS        CLOUDY    56  49  77 VRB7G21   29.89F
WICHITA INTL   RAIN      49  46  90 NE25      29.92F FOG
WICHITA JABRA  LGT RAIN  47 N/A N/A NE15G23   29.97S
WICHITA MCCONL HVY RAIN  48  46  93 NE21      29.94S FOG
WINFIELD       CLOUDY    50  48  93 NE17G23   29.92F
$$

KSZ007>012-019>026-033>040-048>060-102>105-291600-
NORTHEAST KANSAS

CITY           SKY/WX    TMP DP  RH WIND       PRES   REMARKS
CONCORDIA      CLOUDY    45  39  79 NE15      30.05R
EMPORIA        CLOUDY    50  43  77 NE14      29.99S
LAWRENCE       CLOUDY    50  44  80 E10       30.03F
MANHATTAN      CLOUDY    47  39  74 NE10      30.06R
MARYSVILLE     CLOUDY    45  41  87 E13       30.06F
OLATHE IND       N/A     53  45  74 MISG      30.01F
OLATHE EXE     CLOUDY    51  44  77 E13       30.01F
SALINA         RAIN      47  45  93 E12       30.03S FOG
TOPEKA BILLARD CLOUDY    50  42  74 NE12      30.04F
TOPEKA FORBES  CLOUDY    50  42  74 NE13      30.02F
$$




USA.gov is the U.S. government's official web portal to all federal, state and local government web resources and services.